W2CJS Weather Reports


Display with metric or nautical units.
time (UTC)temp
F
wind
direction
speed
MPH
gust
MPH
rain 1hr
in
rain 24hr
in
rain mn
in
humidity
%
barometer
mb
20260506201003 46 358 0.0 3.0 0.01 0.88 0.79 94 1005.8
20260506200003 46 0 0.0 0.0 0.01 0.88 0.79 94 1005.8
20260506195003 46 0 0.0 0.0 0.01 0.88 0.79 94 1005.9
20260506194003 45 42 0.0 4.0 0.01 0.88 0.79 94 1005.7
20260506193003 45 42 1.0 5.0 0.01 0.88 0.79 94 1005.7
20260506192003 45 0 0.0 0.0 0.00 0.87 0.78 94 1005.7
20260506191003 45 0 0.0 0.0 0.00 0.87 0.78 94 1005.7
20260506190004 44 0 0.0 0.0 0.00 0.87 0.78 94 1005.7
20260506185003 44 0 0.0 0.0 0.00 0.87 0.78 94 1005.6
20260506184003 44 0 0.0 0.0 0.01 0.87 0.78 94 1005.4
20260506183003 44 0 0.0 0.0 0.01 0.87 0.78 94 1005.5
20260506182003 44 0 0.0 0.0 0.01 0.87 0.78 94 1005.5
20260506181024 44 0 0.0 0.0 0.02 0.87 0.78 94 1005.6
20260506180004 44 0 0.0 0.0 0.02 0.87 0.78 94 1005.8
20260506175003 44 41 0.0 1.0 0.02 0.87 0.78 94 1005.8
20260506174003 43 41 0.0 2.0 0.03 0.86 0.77 95 1005.8
20260506173024 43 0 0.0 0.0 0.03 0.86 0.77 94 1005.8
20260506172003 43 41 0.0 1.0 0.04 0.86 0.77 94 1006.0
20260506171003 43 0 0.0 0.0 0.04 0.85 0.76 94 1006.0
20260506170003 43 0 0.0 0.0 0.06 0.85 0.76 94 1006.1
20260506165003 42 0 0.0 0.0 0.08 0.85 0.76 94 1006.3
20260506164003 42 0 0.0 0.0 0.08 0.83 0.74 94 1006.4
20260506163003 42 41 0.0 2.0 0.10 0.83 0.74 94 1006.7
20260506162003 42 41 0.0 3.0 0.11 0.82 0.73 94 1006.7
20260506161003 42 0 0.0 0.0 0.11 0.80 0.71 94 1006.6
20260506160003 42 42 0.0 2.0 0.13 0.78 0.69 94 1006.4
20260506155024 42 41 0.0 2.0 0.15 0.77 0.68 94 1006.3
20260506154003 42 41 1.0 3.0 0.16 0.75 0.66 94 1006.4
20260506153003 42 41 1.0 3.0 0.17 0.73 0.64 94 1006.6
20260506152003 42 42 0.0 3.0 0.17 0.71 0.62 94 1006.5
20260506151003 42 0 0.0 0.0 0.17 0.69 0.60 94 1006.7
20260506150003 42 0 0.0 0.0 0.15 0.65 0.56 94 1006.8
20260506145003 41 0 0.0 0.0 0.14 0.63 0.53 94 1006.8
20260506144003 41 0 0.0 0.0 0.15 0.60 0.50 93 1006.9
20260506143003 41 0 0.0 0.0 0.14 0.57 0.47 94 1006.8
20260506142003 41 40 0.0 2.0 0.13 0.54 0.44 94 1006.9
20260506141003 41 0 0.0 0.0 0.13 0.53 0.43 94 1006.8
20260506140003 41 0 0.0 0.0 0.13 0.51 0.41 94 1006.8
20260506135003 41 40 1.0 3.0 0.12 0.49 0.39 94 1006.6
20260506134003 41 40 1.0 4.0 0.09 0.45 0.35 93 1006.4
20260506133003 41 39 1.0 3.0 0.08 0.43 0.33 93 1006.4
20260506132003 41 38 0.0 3.0 0.07 0.41 0.31 93 1006.3
20260506131003 41 37 1.0 4.0 0.07 0.40 0.30 93 1006.3
20260506130004 40 38 1.0 4.0 0.06 0.38 0.28 93 1006.5
20260506125003 40 79 0.0 4.0 0.06 0.37 0.27 93 1006.6
20260506124003 40 105 1.0 4.0 0.07 0.36 0.26 93 1006.7
20260506123003 40 108 1.0 3.0 0.07 0.35 0.25 93 1007.0
20260506122003 41 81 1.0 3.0 0.08 0.34 0.24 92 1007.0
20260506121003 41 78 0.0 2.0 0.09 0.33 0.23 93 1007.4
20260506120003 41 0 0.0 0.0 0.09 0.32 0.22 93 1007.8
20260506115003 41 80 1.0 3.0 0.09 0.31 0.21 93 1007.9
20260506114003 41 99 0.0 2.0 0.07 0.29 0.19 93 1008.1
20260506113003 41 99 0.0 2.0 0.07 0.28 0.18 93 1007.9
20260506112003 41 99 0.0 1.0 0.06 0.26 0.16 93 1007.4
20260506111024 42 0 0.0 0.0 0.05 0.24 0.14 93 1007.4
20260506110024 42 99 0.0 1.0 0.04 0.23 0.13 93 1007.4
20260506105003 42 0 0.0 0.0 0.04 0.22 0.12 92 1007.4
20260506104003 42 99 0.0 1.0 0.05 0.22 0.12 92 1007.7
20260506103003 42 99 0.0 1.0 0.05 0.21 0.11 92 1007.4
20260506102003 42 99 0.0 2.0 0.05 0.20 0.10 92 1007.4
20260506101003 42 99 0.0 4.0 0.04 0.19 0.09 92 1007.3
20260506100003 43 90 1.0 3.0 0.04 0.19 0.09 92 1007.4
20260506095003 43 177 1.0 3.0 0.03 0.18 0.08 92 1007.7
20260506094003 44 0 0.0 0.0 0.02 0.17 0.07 92 1007.7
20260506093003 44 0 0.0 0.0 0.01 0.16 0.06 92 1007.6
20260506092003 44 0 0.0 0.0 0.00 0.15 0.05 92 1007.3
20260506091003 44 0 0.0 0.0 0.01 0.15 0.05 92 1007.4
20260506090003 45 173 0.0 1.0 0.02 0.15 0.05 92 1008.1
20260506085003 45 0 0.0 0.0 0.02 0.15 0.05 93 1007.8
20260506084003 45 173 1.0 3.0 0.03 0.15 0.05 93 1007.7
20260506083003 45 173 0.0 2.0 0.03 0.15 0.05 93 1007.9
20260506082003 45 194 0.0 1.0 0.03 0.16 0.05 93 1008.1
20260506081003 45 252 0.0 2.0 0.02 0.16 0.04 93 1007.6
20260506073003 46 0 0.0 0.0 0.01 0.14 0.02 92 1007.8
20260506072003 46 0 0.0 0.0 0.01 0.14 0.02 92 1008.0
20260506071003 46 0 0.0 0.0 0.01 0.14 0.02 92 1008.3
20260506062003 47 290 1.0 3.0 0.00 0.13 0.01 91 1008.3
20260506061003 47 328 0.0 2.0 0.00 0.13 0.01 92 1008.4
20260506051003 48 331 0.0 3.0 0.01 0.13 0.01 91 1008.4
20260506045003 48 0 0.0 0.0 0.01 0.13 0.01 91 1008.7
20260506044003 49 264 1.0 4.0 0.02 0.13 0.01 91 1008.9
20260506043024 49 51 0.0 4.0 0.02 0.13 0.01 91 1008.9
20260506042003 50 249 0.0 3.0 0.01 0.12 0.00 92 1008.5
20260506041003 50 249 0.0 3.0 0.02 0.12 0.00 92 1008.8
20260506040004 50 256 1.0 4.0 0.02 0.12 0.00 91 1008.5
20260506035004 50 238 1.0 5.0 0.04 0.12 0.12 91 1008.3
20260506034003 50 251 0.0 1.0 0.03 0.11 0.11 92 1008.0
20260506033003 50 0 0.0 0.0 0.04 0.11 0.11 91 1008.2
20260506032003 50 0 0.0 0.0 0.04 0.11 0.11 90 1007.7
20260506031003 50 251 0.0 1.0 0.04 0.10 0.10 90 1007.9
20260506030003 50 251 0.0 3.0 0.04 0.10 0.10 89 1008.1
20260506025003 51 251 0.0 3.0 0.02 0.08 0.08 89 1008.5
20260506024003 51 338 0.0 1.0 0.03 0.08 0.08 88 1008.4
20260506023003 51 338 0.0 2.0 0.04 0.07 0.07 88 1008.5
20260506022003 52 0 0.0 0.0 0.04 0.07 0.07 88 1008.5
20260506021003 52 0 0.0 0.0 0.03 0.06 0.06 87 1008.6
20260506020003 52 0 0.0 0.0 0.03 0.06 0.06 85 1008.8
20260506015003 53 328 0.0 2.0 0.03 0.06 0.06 83 1008.4
20260506014003 54 273 1.0 3.0 0.02 0.05 0.05 79 1008.3
20260506013003 55 182 1.0 6.0 0.00 0.03 0.03 75 1008.4
20260506012024 56 296 2.0 7.0 0.00 0.03 0.03 71 1008.0
20260506011003 57 249 2.0 5.0 0.00 0.03 0.03 71 1007.9
20260506010024 58 226 2.0 9.0 0.00 0.03 0.03 72 1007.6
20260506005003 58 227 3.0 10.0 0.00 0.03 0.03 72 1007.3
20260506004003 58 250 4.0 11.0 0.00 0.03 0.03 72 1007.3
20260506003003 59 273 4.0 14.0 0.00 0.03 0.03 72 1007.0
20260506002003 60 242 3.0 8.0 0.00 0.03 0.03 74 1006.5
20260506001003 60 235 3.0 7.0 0.00 0.03 0.03 73 1006.1
20260506000003 61 247 2.0 6.0 0.00 0.03 0.03 72 1005.8
20260505235003 61 225 2.0 6.0 0.00 0.03 0.03 71 1005.6
20260505234003 61 228 2.0 5.0 0.00 0.03 0.03 70 1005.4
20260505233003 62 234 3.0 9.0 0.00 0.03 0.03 70 1005.4
20260505232003 62 230 4.0 12.0 0.00 0.03 0.03 69 1005.4
20260505231003 62 241 3.0 12.0 0.00 0.03 0.03 68 1005.3
20260505230003 63 244 3.0 8.0 0.00 0.03 0.03 69 1005.2
20260505225024 63 237 3.0 7.0 0.00 0.03 0.03 69 1005.2
20260505224024 63 220 3.0 10.0 0.00 0.03 0.03 70 1004.8
20260505223003 63 256 3.0 8.0 0.00 0.03 0.03 69 1004.9
20260505222003 64 266 5.0 11.0 0.00 0.03 0.03 68 1004.8
20260505221003 64 248 4.0 10.0 0.00 0.03 0.03 67 1004.7
20260505220003 64 232 3.0 11.0 0.00 0.03 0.03 67 1004.6
20260505215003 64 237 3.0 8.0 0.00 0.03 0.03 69 1004.4
20260505214024 64 230 6.0 12.0 0.00 0.03 0.03 70 1004.6
20260505213003 63 233 6.0 14.0 0.00 0.03 0.03 69 1004.4
20260505212024 63 229 6.0 15.0 0.00 0.03 0.03 70 1004.5
20260505211003 63 227 8.0 19.0 0.00 0.03 0.03 70 1004.7
20260505210003 63 233 5.0 17.0 0.00 0.03 0.03 71 1004.6
20260505205024 63 232 7.0 19.0 0.00 0.03 0.03 70 1004.5
20260505204003 63 234 4.0 12.0 0.00 0.03 0.03 71 1004.4
20260505203024 63 241 4.0 9.0 0.00 0.03 0.03 71 1004.3
20260505202003 62 240 5.0 11.0 0.00 0.03 0.03 72 1004.3